Regional Weather Roundup
Issued by NWS

Home | Current Version | Previous Version | Text Only | Print | Product List | Glossary On
Versions: 1 2 3 4 5 6 7 8 9 10 11 12 13 14 15 16 17 18 19 20 21 22 23 24 25 26 27 28 29 30 31 32 33 34 35 36 37 38 39 40 41 42 43 44 45 46 47 48 49 50
000
ASUS42 KFFC 221010
RWRGA
WEATHER ROUNDUP FOR GEORGIA
NATIONAL WEATHER SERVICE PEACHTREE CITY GA
600 AM EDT FRI SEP 22 2017

NOTE: "FAIR" INDICATES FEW OR NO CLOUDS BELOW 12,000 FEET WITH NO
SIGNIFICANT WEATHER AND/OR OBSTRUCTIONS TO VISIBILITY.

* = USE WITH CAUTION. THE STATIONS MARKED WITH AN ASTERISK MAY NOT
REPORT WEATHER SUCH AS PRECIPITATION, FOG, OR THUNDER AND ARE NOT
QUALITY CONTROLLED BY NWS.

THE REMARK "TC" DENOTES TEMPERATURE READING IN DEGREES CELSIUS.

GAZ001>058-221100-
NORTH GEORGIA

CITY           SKY/WX    TMP DP  RH WIND       PRES   REMARKS
ATLANTA        PTCLDY    71  65  81 E7        30.05R
ATHENS         PTCLDY    69  67  93 NE5       30.05R
CHAMBLEE       MOCLDY    70  65  84 CALM      30.06R
PEACHTREE CITY CLEAR     67  65  93 CALM      30.05R
ROME           CLEAR     68  68 100 NE3       30.05R
WEST ATLANTA   MOCLDY    68  67  96 CALM      30.05R
GAINESVILLE    CLEAR     69  64  84 NE6       30.10R
CARTERSVILLE   PTCLDY    66  66 100 CALM      30.06R


CITY           SKY/WX    TMP DP  RH WIND       PRES   REMARKS
DALTON*        CLEAR     63  63 100 CALM      30.08R FOG
MARIETTA       CLOUDY    69  65  86 CALM      30.06R
KENNESAW*      CLOUDY    70  65  84 E3        30.07R
CANTON*        CLEAR     66  66 100 CALM      30.08S
$$

GAZ059>098-102>109-221100-
CENTRAL GEORGIA

CITY           SKY/WX    TMP DP  RH WIND       PRES   REMARKS
AUGUSTA-BUSH   CLEAR     67  65  93 CALM      30.03R
AUGUSTA-DANIEL CLEAR     71  68  90 SE3       30.04R
COLUMBUS       CLEAR     70  68  93 E3        30.01R
MACON          CLEAR     65  65 100 CALM      30.03R
ROBINS AFB     CLEAR     68  66  96 CALM      30.02R


CITY           SKY/WX    TMP DP  RH WIND       PRES   REMARKS
LAGRANGE*      PTCLDY    67  67  98 CALM      30.03S
SYLVANIA*      CLEAR     67  67 100 CALM      30.04R FOG
MILLEDGEVILLE* CLEAR     68  68 100 CALM      30.04R FOG
$$

GAZ099>101-110>166-221100-
SOUTH GEORGIA

CITY           SKY/WX    TMP DP  RH WIND       PRES   REMARKS
SAVANNAH       PTCLDY    70  69  97 N3        30.02R
VALDOSTA       PTCLDY    69  69 100 CALM      29.99R
ALMA           FOG       69  68  96 CALM      30.01R VSB 1
ST SIMONS      CLOUDY    77  74  90 CALM      29.99R
FT STEWART     PTCLDY    70  69  96 CALM      29.99R
ALBANY         CLEAR     69  68  96 CALM      30.02R
HUNTER AFB     CLEAR     73  72  94 NE3       29.99R
MOODY AFB      MOCLDY    68  68 100 CALM      29.99R
BRUNSWICK      CLOUDY    72  70  94 CALM      30.00R FOG


CITY           SKY/WX    TMP DP  RH WIND       PRES   REMARKS
BAINBRIDGE*    CLEAR     70  70 100 CALM      29.99R
MOULTRIE*      CLEAR     68  68 100 CALM      30.01R
VIDALIA*       CLEAR     70  70 100 CALM      30.02S FOG
WAYCROSS*      CLEAR     70  67  90 CALM      30.01R FOG
DOUGLAS*       CLEAR     68  68 100 NE3       30.02S
$$



USA.gov is the U.S. government's official web portal to all federal, state and local government web resources and services.